Time,TemperatureF,DewpointF,PressureIn,WindDirection,WindDirectionDegrees,WindSpeedMPH,WindSpeedGustMPH,Humidity,HourlyPrecipIn,Conditions,Clouds,dailyrainin,SoftwareType,DateUTC
2013-01-24 00:02:00,-3.0,-15.0,-100.00,North,10,10.0,14.0,54,0.00,,,0.00,,2013-01-24 06:02:00,
2013-01-24 00:12:00,-3.0,-15.0,-100.00,NNE,20,11.0,14.0,54,0.00,,,0.00,,2013-01-24 06:12:00,
2013-01-24 00:22:00,-3.0,-15.0,-100.00,NNE,20,9.0,12.0,55,0.00,,,0.00,,2013-01-24 06:22:00,
2013-01-24 00:32:00,-3.0,-15.0,-100.00,NNE,20,10.0,12.0,55,0.00,,,0.00,,2013-01-24 06:32:00,
2013-01-24 00:42:00,-3.0,-15.0,-100.00,NNE,30,9.0,11.0,56,0.00,,,0.00,,2013-01-24 06:42:00,
2013-01-24 00:52:00,-4.0,-17.0,-100.00,NNE,30,12.0,16.0,54,0.00,,,0.00,,2013-01-24 06:52:00,
2013-01-24 01:02:00,-4.0,-17.0,-100.00,NE,35,11.0,16.0,54,0.00,,,0.00,,2013-01-24 07:02:00,
2013-01-24 01:12:00,-4.0,-17.0,-100.00,NNE,30,12.0,16.0,54,0.00,,,0.00,,2013-01-24 07:12:00,
2013-01-24 01:22:00,-4.0,-17.0,-100.00,NNE,25,12.0,14.0,54,0.00,,,0.00,,2013-01-24 07:22:00,
2013-01-24 01:33:00,-4.0,-17.0,-100.00,NE,35,7.0,14.0,54,0.00,,,0.00,,2013-01-24 07:33:00,
2013-01-24 01:42:00,-4.0,-17.0,-100.00,NE,35,9.0,12.0,54,0.00,,,0.00,,2013-01-24 07:42:00,
2013-01-24 01:52:00,-4.0,-17.0,-100.00,NNE,30,8.0,12.0,54,0.00,,,0.00,,2013-01-24 07:52:00,
2013-01-24 02:02:00,-4.0,-17.0,-100.00,NE,35,10.0,13.0,55,0.00,,,0.00,,2013-01-24 08:02:00,
2013-01-24 02:12:00,-5.0,-17.0,-100.00,NNE,30,11.0,12.0,55,0.00,,,0.00,,2013-01-24 08:12:00,
2013-01-24 02:22:00,-5.0,-17.0,-100.00,NNE,20,9.0,11.0,55,0.00,,,0.00,,2013-01-24 08:22:00,
2013-01-24 02:33:00,-5.0,-17.0,-100.00,NNE,25,7.0,10.0,55,0.00,,,0.00,,2013-01-24 08:33:00,
2013-01-24 02:42:00,-5.0,-17.0,-100.00,NNE,30,9.0,10.0,55,0.00,,,0.00,,2013-01-24 08:42:00,
2013-01-24 02:52:00,-5.0,-17.0,-100.00,NE,50,6.0,9.0,55,0.00,,,0.00,,2013-01-24 08:52:00,
2013-01-24 03:02:00,-5.0,-17.0,-100.00,NE,45,5.0,7.0,55,0.00,,,0.00,,2013-01-24 09:02:00,
2013-01-24 03:12:00,-5.0,-17.0,-100.00,ENE,60,6.0,8.0,55,0.00,,,0.00,,2013-01-24 09:12:00,
2013-01-24 03:22:00,-5.0,-17.0,-100.00,ENE,70,6.0,9.0,55,0.00,,,0.00,,2013-01-24 09:22:00,
2013-01-24 03:33:00,-5.0,-17.0,-100.00,ENE,60,6.0,9.0,54,0.00,,,0.00,,2013-01-24 09:33:00,
2013-01-24 03:42:00,-5.0,-17.0,-100.00,ENE,60,6.0,7.0,54,0.00,,,0.00,,2013-01-24 09:42:00,
2013-01-24 03:52:00,-5.0,-17.0,-100.00,ENE,60,6.0,7.0,54,0.00,,,0.00,,2013-01-24 09:52:00,
2013-01-24 04:02:00,-5.0,-17.0,-100.00,NE,55,6.0,7.0,54,0.00,,,0.00,,2013-01-24 10:02:00,
2013-01-24 04:12:00,-5.0,-17.0,-100.00,NE,40,6.0,7.0,55,0.00,,,0.00,,2013-01-24 10:12:00,
2013-01-24 04:22:00,-5.0,-17.0,-100.00,NE,40,7.0,8.0,55,0.00,,,0.00,,2013-01-24 10:22:00,
2013-01-24 04:33:00,-4.0,-17.0,-100.00,NE,55,6.0,9.0,55,0.00,,,0.00,,2013-01-24 10:33:00,
2013-01-24 04:43:00,-4.0,-17.0,-100.00,NE,45,5.0,9.0,55,0.00,,,0.00,,2013-01-24 10:43:00,
2013-01-24 04:52:00,-5.0,-17.0,-100.00,NE,50,7.0,10.0,56,0.00,,,0.00,,2013-01-24 10:52:00,
2013-01-24 05:02:00,-5.0,-17.0,-100.00,ENE,65,7.0,10.0,56,0.00,,,0.00,,2013-01-24 11:02:00,
2013-01-24 05:12:00,-5.0,-17.0,-100.00,East,85,7.0,10.0,56,0.00,,,0.00,,2013-01-24 11:12:00,
2013-01-24 05:22:00,-5.0,-17.0,-100.00,NE,55,7.0,10.0,56,0.00,,,0.00,,2013-01-24 11:22:00,
2013-01-24 05:33:00,-5.0,-17.0,-100.00,ENE,60,7.0,9.0,56,0.00,,,0.00,,2013-01-24 11:33:00,
2013-01-24 05:43:00,-5.0,-17.0,-100.00,NE,50,6.0,8.0,56,0.00,,,0.00,,2013-01-24 11:43:00,
2013-01-24 05:52:00,-5.0,-17.0,-100.00,East,85,4.0,7.0,57,0.00,,,0.00,,2013-01-24 11:52:00,
2013-01-24 06:03:00,-5.0,-17.0,-100.00,ENE,65,4.0,6.0,57,0.00,,,0.00,,2013-01-24 12:03:00,
2013-01-24 06:12:00,-4.0,-15.0,-100.00,ENE,70,5.0,7.0,57,0.00,,,0.00,,2013-01-24 12:12:00,
2013-01-24 06:22:00,-4.0,-15.0,-100.00,ENE,75,1.0,6.0,57,0.00,,,0.00,,2013-01-24 12:22:00,
2013-01-24 06:33:00,-4.0,-17.0,-100.00,ENE,75,2.0,5.0,57,0.00,,,0.00,,2013-01-24 12:33:00,
2013-01-24 06:42:00,-4.0,-15.0,-100.00,ESE,115,3.0,6.0,57,0.00,,,0.00,,2013-01-24 12:42:00,
2013-01-24 06:53:00,-4.0,-15.0,-100.00,ESE,115,2.0,4.0,56,0.00,,,0.00,,2013-01-24 12:53:00,
2013-01-24 07:03:00,-4.0,-15.0,-100.00,ENE,70,4.0,5.0,56,0.00,,,0.00,,2013-01-24 13:03:00,
2013-01-24 07:12:00,-4.0,-15.0,-100.00,East,85,2.0,5.0,56,0.00,,,0.00,,2013-01-24 13:12:00,
2013-01-24 07:22:00,-3.0,-15.0,-100.00,ENE,70,3.0,4.0,56,0.00,,,0.00,,2013-01-24 13:22:00,
2013-01-24 07:33:00,-3.0,-15.0,-100.00,East,85,4.0,6.0,56,0.00,,,0.00,,2013-01-24 13:33:00,
2013-01-24 07:42:00,-3.0,-15.0,-100.00,SE,125,4.0,6.0,56,0.00,,,0.00,,2013-01-24 13:42:00,
2013-01-24 07:52:00,-3.0,-15.0,-100.00,SE,125,4.0,7.0,56,0.00,,,0.00,,2013-01-24 13:52:00,
2013-01-24 08:02:00,-3.0,-15.0,-100.00,East,95,4.0,9.0,56,0.00,,,0.00,,2013-01-24 14:02:00,
2013-01-24 08:12:00,-3.0,-15.0,-100.00,ESE,105,6.0,7.0,56,0.00,,,0.00,,2013-01-24 14:12:00,
2013-01-24 08:22:00,-3.0,-15.0,-100.00,East,100,6.0,9.0,57,0.00,,,0.00,,2013-01-24 14:22:00,
2013-01-24 08:33:00,-3.0,-15.0,-100.00,ESE,110,6.0,8.0,57,0.00,,,0.00,,2013-01-24 14:33:00,
2013-01-24 08:43:00,-3.0,-15.0,-100.00,East,95,6.0,8.0,57,0.00,,,0.00,,2013-01-24 14:43:00,
2013-01-24 08:53:00,-3.0,-15.0,-100.00,ESE,110,6.0,9.0,57,0.00,,,0.00,,2013-01-24 14:53:00,
2013-01-24 09:03:00,-3.0,-15.0,-100.00,East,90,6.0,9.0,57,0.00,,,0.00,,2013-01-24 15:03:00,
2013-01-24 09:12:00,-3.0,-13.0,-100.00,ESE,120,6.0,10.0,57,0.00,,,0.00,,2013-01-24 15:12:00,
2013-01-24 09:22:00,-3.0,-13.0,-100.00,ESE,105,7.0,9.0,57,0.00,,,0.00,,2013-01-24 15:22:00,
2013-01-24 09:33:00,-2.0,-13.0,-100.00,ESE,110,7.0,10.0,57,0.00,,,0.00,,2013-01-24 15:33:00,
2013-01-24 09:43:00,-2.0,-13.0,-100.00,SE,125,7.0,9.0,57,0.00,,,0.00,,2013-01-24 15:43:00,
2013-01-24 09:52:00,-2.0,-13.0,-100.00,SE,125,6.0,9.0,57,0.00,,,0.00,,2013-01-24 15:52:00,
2013-01-24 10:03:00,-1.0,-13.0,-100.00,SE,135,7.0,9.0,57,0.00,,,0.00,,2013-01-24 16:03:00,
2013-01-24 10:12:00,-1.0,-13.0,-100.00,SE,130,7.0,11.0,57,0.00,,,0.00,,2013-01-24 16:12:00,
2013-01-24 10:22:00,0.0,-11.0,-100.00,SE,140,9.0,11.0,57,0.00,,,0.00,,2013-01-24 16:22:00,
2013-01-24 10:33:00,0.0,-11.0,-100.00,SE,145,10.0,11.0,57,0.00,,,0.00,,2013-01-24 16:33:00,
2013-01-24 10:42:00,0.0,-11.0,-100.00,SE,145,10.0,11.0,57,0.00,,,0.00,,2013-01-24 16:42:00,
2013-01-24 11:02:00,1.0,-11.0,-100.00,SE,125,7.0,10.0,57,0.00,,,0.00,,2013-01-24 17:02:00,
2013-01-24 11:12:00,1.0,-11.0,-100.00,SE,135,9.0,12.0,57,0.00,,,0.00,,2013-01-24 17:12:00,
2013-01-24 11:21:00,2.0,-9.0,-100.00,SE,135,9.0,14.0,57,0.00,,,0.00,,2013-01-24 17:21:00,
2013-01-24 11:32:00,2.0,-9.0,-100.00,SE,130,10.0,14.0,56,0.00,,,0.00,,2013-01-24 17:32:00,
2013-01-24 11:42:00,3.0,-9.0,-100.00,SE,145,10.0,15.0,56,0.00,,,0.00,,2013-01-24 17:42:00,
2013-01-24 11:52:00,4.0,-8.0,-100.00,SSE,150,11.0,15.0,56,0.00,,,0.00,,2013-01-24 17:52:00,
2013-01-24 12:02:00,4.0,-9.0,-100.00,SSE,155,12.0,15.0,55,0.00,,,0.00,,2013-01-24 18:02:00,
2013-01-24 12:12:00,5.0,-8.0,-100.00,SE,140,9.0,14.0,55,0.00,,,0.00,,2013-01-24 18:12:00,
2013-01-24 12:22:00,5.0,-8.0,-100.00,SSE,155,10.0,16.0,54,0.00,,,0.00,,2013-01-24 18:22:00,
2013-01-24 12:32:00,5.0,-8.0,-100.00,SE,145,12.0,15.0,54,0.00,,,0.00,,2013-01-24 18:32:00,
2013-01-24 12:42:00,6.0,-8.0,-100.00,SE,145,12.0,15.0,54,0.00,,,0.00,,2013-01-24 18:42:00,
2013-01-24 12:52:00,6.0,-8.0,-100.00,SSE,165,11.0,16.0,53,0.00,,,0.00,,2013-01-24 18:52:00,
2013-01-24 13:02:00,6.0,-8.0,-100.00,SSE,150,11.0,14.0,52,0.00,,,0.00,,2013-01-24 19:02:00,
2013-01-24 13:12:00,6.0,-8.0,-100.00,SE,135,12.0,16.0,52,0.00,,,0.00,,2013-01-24 19:12:00,
2013-01-24 13:22:00,7.0,-6.0,-100.00,SE,140,11.0,16.0,52,0.00,,,0.00,,2013-01-24 19:22:00,
2013-01-24 13:33:00,7.0,-6.0,-100.00,SSE,155,11.0,17.0,52,0.00,,,0.00,,2013-01-24 19:33:00,
2013-01-24 13:42:00,8.0,-6.0,-100.00,SSE,150,9.0,16.0,51,0.00,,,0.00,,2013-01-24 19:42:00,
2013-01-24 13:52:00,8.0,-6.0,-100.00,SSE,165,11.0,13.0,51,0.00,,,0.00,,2013-01-24 19:52:00,
2013-01-24 14:02:00,9.0,-6.0,-100.00,SSE,165,9.0,15.0,50,0.00,,,0.00,,2013-01-24 20:02:00,
2013-01-24 14:11:00,8.0,-6.0,-100.00,SSE,150,10.0,17.0,50,0.00,,,0.00,,2013-01-24 20:11:00,
2013-01-24 14:22:00,9.0,-6.0,-100.00,SE,140,9.0,17.0,50,0.00,,,0.00,,2013-01-24 20:22:00,
2013-01-24 14:32:00,9.0,-6.0,-100.00,SSE,155,11.0,16.0,50,0.00,,,0.00,,2013-01-24 20:32:00,
2013-01-24 14:42:00,10.0,-6.0,-100.00,SE,140,14.0,17.0,49,0.00,,,0.00,,2013-01-24 20:42:00,
2013-01-24 14:52:00,10.0,-6.0,-100.00,SSE,150,11.0,17.0,48,0.00,,,0.00,,2013-01-24 20:52:00,
2013-01-24 15:02:00,10.0,-6.0,-100.00,SSE,150,15.0,19.0,48,0.00,,,0.00,,2013-01-24 21:02:00,
2013-01-24 15:12:00,10.0,-6.0,-100.00,SSE,160,12.0,19.0,47,0.00,,,0.00,,2013-01-24 21:12:00,
2013-01-24 15:22:00,10.0,-6.0,-100.00,SSE,160,14.0,21.0,46,0.00,,,0.00,,2013-01-24 21:22:00,
2013-01-24 15:33:00,10.0,-6.0,-100.00,SSE,165,16.0,19.0,46,0.00,,,0.00,,2013-01-24 21:33:00,
2013-01-24 15:42:00,11.0,-6.0,-100.00,SE,135,14.0,18.0,46,0.00,,,0.00,,2013-01-24 21:42:00,
2013-01-24 15:52:00,11.0,-6.0,-100.00,SE,130,15.0,19.0,46,0.00,,,0.00,,2013-01-24 21:52:00,
2013-01-24 16:03:00,11.0,-6.0,-100.00,SSE,155,14.0,22.0,46,0.00,,,0.00,,2013-01-24 22:03:00,
2013-01-24 16:12:00,11.0,-6.0,-100.00,SE,130,11.0,17.0,46,0.00,,,0.00,,2013-01-24 22:12:00,
2013-01-24 16:22:00,11.0,-6.0,-100.00,SE,140,13.0,19.0,46,0.00,,,0.00,,2013-01-24 22:22:00,
2013-01-24 16:32:00,11.0,-6.0,-100.00,SSE,155,14.0,17.0,46,0.00,,,0.00,,2013-01-24 22:32:00,
2013-01-24 16:42:00,11.0,-6.0,-100.00,SE,145,12.0,18.0,46,0.00,,,0.00,,2013-01-24 22:42:00,
2013-01-24 16:52:00,11.0,-6.0,-100.00,SE,140,14.0,17.0,46,0.00,,,0.00,,2013-01-24 22:52:00,
2013-01-24 17:02:00,11.0,-6.0,-100.00,SE,140,14.0,17.0,46,0.00,,,0.00,,2013-01-24 23:02:00,
2013-01-24 17:12:00,11.0,-6.0,-100.00,SE,145,13.0,17.0,46,0.00,,,0.00,,2013-01-24 23:12:00,
2013-01-24 17:22:00,11.0,-6.0,-100.00,SE,135,12.0,17.0,47,0.00,,,0.00,,2013-01-24 23:22:00,
2013-01-24 17:32:00,11.0,-6.0,-100.00,SE,130,13.0,17.0,47,0.00,,,0.00,,2013-01-24 23:32:00,
2013-01-24 17:42:00,11.0,-6.0,-100.00,SE,140,13.0,19.0,47,0.00,,,0.00,,2013-01-24 23:42:00,
2013-01-24 17:52:00,11.0,-6.0,-100.00,SE,135,11.0,17.0,47,0.00,,,0.00,,2013-01-24 23:52:00,
2013-01-24 18:02:00,11.0,-6.0,-100.00,SE,135,12.0,16.0,48,0.00,,,0.00,,2013-01-25 00:02:00,
2013-01-24 18:12:00,11.0,-6.0,-100.00,SE,140,12.0,18.0,48,0.00,,,0.00,,2013-01-25 00:12:00,
2013-01-24 18:22:00,11.0,-6.0,-100.00,SE,130,11.0,16.0,48,0.00,,,0.00,,2013-01-25 00:22:00,
2013-01-24 18:32:00,11.0,-6.0,-100.00,ESE,120,12.0,15.0,48,0.00,,,0.00,,2013-01-25 00:32:00,
2013-01-24 18:41:00,11.0,-4.0,-100.00,SE,145,16.0,21.0,49,0.00,,,0.00,,2013-01-25 00:41:00,
2013-01-24 18:51:00,11.0,-4.0,-100.00,SSE,150,13.0,19.0,50,0.00,,,0.00,,2013-01-25 00:51:00,
2013-01-24 19:01:00,11.0,-4.0,-100.00,SE,145,14.0,19.0,50,0.00,,,0.00,,2013-01-25 01:01:00,
2013-01-24 19:12:00,11.0,-4.0,-100.00,SE,145,14.0,19.0,50,0.00,,,0.00,,2013-01-25 01:12:00,
2013-01-24 19:21:00,11.0,-4.0,-100.00,SE,140,12.0,18.0,51,0.00,,,0.00,,2013-01-25 01:21:00,
2013-01-24 19:32:00,11.0,-4.0,-100.00,SE,145,13.0,21.0,51,0.00,,,0.00,,2013-01-25 01:32:00,
2013-01-24 19:42:00,11.0,-4.0,-100.00,SSE,150,16.0,22.0,52,0.00,,,0.00,,2013-01-25 01:42:00,
2013-01-24 19:52:00,11.0,-2.0,-100.00,SSE,150,15.0,21.0,52,0.00,,,0.00,,2013-01-25 01:52:00,
2013-01-24 20:02:00,11.0,-2.0,-100.00,SSE,150,14.0,21.0,53,0.00,,,0.00,,2013-01-25 02:02:00,
2013-01-24 20:11:00,11.0,-2.0,-100.00,SSE,155,19.0,23.0,53,0.00,,,0.00,,2013-01-25 02:11:00,
2013-01-24 20:22:00,11.0,-2.0,-100.00,SE,140,14.0,21.0,53,0.00,,,0.00,,2013-01-25 02:22:00,
2013-01-24 20:32:00,11.0,-2.0,-100.00,SSE,155,13.0,17.0,53,0.00,,,0.00,,2013-01-25 02:32:00,
2013-01-24 20:42:00,11.0,-2.0,-100.00,SSE,155,14.0,18.0,54,0.00,,,0.00,,2013-01-25 02:42:00,
2013-01-24 20:52:00,11.0,-2.0,-100.00,SSE,165,14.0,19.0,54,0.00,,,0.00,,2013-01-25 02:52:00,
2013-01-24 21:02:00,12.0,-2.0,-100.00,SSE,160,12.0,18.0,54,0.00,,,0.00,,2013-01-25 03:02:00,
2013-01-24 21:12:00,12.0,-2.0,-100.00,SSE,155,13.0,18.0,54,0.00,,,0.00,,2013-01-25 03:12:00,
2013-01-24 21:22:00,12.0,-2.0,-100.00,SSE,160,12.0,19.0,54,0.00,,,0.00,,2013-01-25 03:22:00,
2013-01-24 21:33:00,12.0,0.0,-100.00,SE,145,13.0,21.0,53,0.00,,,0.00,,2013-01-25 03:33:00,
2013-01-24 21:41:00,13.0,0.0,-100.00,SSE,155,13.0,17.0,53,0.00,,,0.00,,2013-01-25 03:41:00,
2013-01-24 21:52:00,13.0,0.0,-100.00,SSE,165,12.0,19.0,53,0.00,,,0.00,,2013-01-25 03:52:00,
2013-01-24 22:02:00,13.0,0.0,-100.00,South,170,16.0,19.0,52,0.00,,,0.00,,2013-01-25 04:02:00,
2013-01-24 22:12:00,13.0,-2.0,-100.00,South,175,12.0,20.0,52,0.00,,,0.00,,2013-01-25 04:12:00,
2013-01-24 22:22:00,13.0,0.0,-100.00,South,175,8.0,14.0,51,0.00,,,0.00,,2013-01-25 04:22:00,
2013-01-24 22:32:00,14.0,-2.0,-100.00,South,190,12.0,17.0,49,0.00,,,0.00,,2013-01-25 04:32:00,
2013-01-24 22:41:00,14.0,-2.0,-100.00,South,190,12.0,18.0,47,0.00,,,0.00,,2013-01-25 04:41:00,
2013-01-24 22:51:00,15.0,-2.0,-100.00,SSW,200,12.0,16.0,46,0.00,,,0.00,,2013-01-25 04:51:00,
2013-01-24 23:03:00,15.0,-2.0,-100.00,SSW,200,13.0,17.0,46,0.00,,,0.00,,2013-01-25 05:03:00,
2013-01-24 23:12:00,15.0,-2.0,-100.00,SSW,205,15.0,19.0,45,0.00,,,0.00,,2013-01-25 05:12:00,
2013-01-24 23:22:00,15.0,-2.0,-100.00,South,185,17.0,20.0,45,0.00,,,0.00,,2013-01-25 05:22:00,
2013-01-24 23:32:00,15.0,-2.0,-100.00,SSW,195,14.0,20.0,46,0.00,,,0.00,,2013-01-25 05:32:00,
2013-01-24 23:43:00,15.0,-2.0,-100.00,South,185,16.0,21.0,48,0.00,,,0.00,,2013-01-25 05:43:00,
2013-01-24 23:52:00,14.0,0.0,-100.00,SSW,195,16.0,23.0,52,0.00,,,0.00,,2013-01-25 05:52:00,